Torna al catalogo

USA 160

AttivoMilitareLEO
NORAD 26905·PAYLOAD·🇺🇸 United States

Lanciato Sep 8, 2001 da Vandenberg Space Force Base

Loading…

Prossimi Passaggi (prossime 24 ore)

TLE

ObsoletoSource: Mike McCants

Epoca: Aug 7, 2026, 20:44 UTC

1 26905U 01040A   26219.86449315 0.00000000  00000-0  00000-0 0    00
2 26905  63.3691 115.8316 0672021  13.1964 346.8036 13.41667698    00

Traccia USA 160 in tempo reale con AllMySat

Download on the App Store